Year,Month,Day,Hour,Minute,Value (Times are PST for temperature in C)
2021,07,03,00,00,17.90
2021,07,03,00,01,17.90
2021,07,03,00,02,17.90
2021,07,03,00,03,17.90
2021,07,03,00,04,17.80
2021,07,03,00,05,17.80
2021,07,03,00,06,17.80
2021,07,03,00,07,17.80
2021,07,03,00,08,17.80
2021,07,03,00,09,17.80
2021,07,03,00,10,17.80
2021,07,03,00,11,17.80
2021,07,03,00,12,17.80
2021,07,03,00,13,17.70
2021,07,03,00,14,17.70
2021,07,03,00,15,17.70
2021,07,03,00,16,17.60
2021,07,03,00,17,17.60
2021,07,03,00,18,17.60
2021,07,03,00,19,17.50
2021,07,03,00,20,17.50
2021,07,03,00,21,17.50
2021,07,03,00,22,17.40
2021,07,03,00,23,17.40
2021,07,03,00,24,17.40
2021,07,03,00,25,17.30
2021,07,03,00,26,17.30
2021,07,03,00,27,17.30
2021,07,03,00,28,17.30
2021,07,03,00,29,17.30
2021,07,03,00,30,17.30
2021,07,03,00,31,17.30
2021,07,03,00,32,17.30
2021,07,03,00,33,17.30
2021,07,03,00,34,17.30
2021,07,03,00,35,17.30
2021,07,03,00,36,17.30
2021,07,03,00,37,17.30
2021,07,03,00,38,17.30
2021,07,03,00,39,17.30
2021,07,03,00,40,17.30
2021,07,03,00,41,17.30
2021,07,03,00,42,17.30
2021,07,03,00,43,17.30
2021,07,03,00,44,17.20
2021,07,03,00,45,17.20
2021,07,03,00,46,17.20
2021,07,03,00,47,17.20
2021,07,03,00,48,17.20
2021,07,03,00,49,17.20
2021,07,03,00,50,17.10
2021,07,03,00,51,17.10
2021,07,03,00,52,17.10
2021,07,03,00,53,17.10
2021,07,03,00,54,17.10
2021,07,03,00,55,17.10
2021,07,03,00,56,17.10
2021,07,03,00,57,17.10
2021,07,03,00,58,17.10
2021,07,03,00,59,17.10
2021,07,03,01,00,17.10
2021,07,03,01,01,17.10
2021,07,03,01,02,17.10
2021,07,03,01,03,17.20
2021,07,03,01,04,17.20
2021,07,03,01,05,17.20
2021,07,03,01,06,17.20
2021,07,03,01,07,17.20
2021,07,03,01,08,17.20
2021,07,03,01,09,17.20
2021,07,03,01,10,17.30
2021,07,03,01,11,17.30
2021,07,03,01,12,17.30
2021,07,03,01,13,17.30
2021,07,03,01,14,17.30
2021,07,03,01,15,17.30
2021,07,03,01,16,17.30
2021,07,03,01,17,17.30
2021,07,03,01,18,17.20
2021,07,03,01,19,17.20
2021,07,03,01,20,17.20
2021,07,03,01,21,17.20
2021,07,03,01,22,17.20
2021,07,03,01,23,17.20
2021,07,03,01,24,17.20
2021,07,03,01,25,17.10
2021,07,03,01,26,17.10
2021,07,03,01,27,17.10
2021,07,03,01,28,17.10
2021,07,03,01,29,17.10
2021,07,03,01,30,17.10
2021,07,03,01,31,17.00
2021,07,03,01,32,17.00
2021,07,03,01,33,17.00
2021,07,03,01,34,17.00
2021,07,03,01,35,17.00
2021,07,03,01,36,17.00
2021,07,03,01,37,17.00
2021,07,03,01,38,17.00
2021,07,03,01,39,17.00
2021,07,03,01,40,17.00
2021,07,03,01,41,16.90
2021,07,03,01,42,16.90
2021,07,03,01,43,16.90
2021,07,03,01,44,16.90
2021,07,03,01,45,16.90
2021,07,03,01,46,16.90
2021,07,03,01,47,16.90
2021,07,03,01,48,16.90
2021,07,03,01,49,16.90
2021,07,03,01,50,16.80
2021,07,03,01,51,16.80
2021,07,03,01,52,16.80
2021,07,03,01,53,16.80
2021,07,03,01,54,16.80
2021,07,03,01,55,16.80
2021,07,03,01,56,16.80
2021,07,03,01,57,16.80
2021,07,03,01,58,16.80
2021,07,03,01,59,16.80
2021,07,03,02,00,16.80
2021,07,03,02,01,16.70
2021,07,03,02,02,16.70
2021,07,03,02,03,16.70
2021,07,03,02,04,16.70
2021,07,03,02,05,16.70
2021,07,03,02,06,16.60
2021,07,03,02,07,16.60
2021,07,03,02,08,16.60
2021,07,03,02,09,16.60
2021,07,03,02,10,16.60
2021,07,03,02,11,16.60
2021,07,03,02,12,16.60
2021,07,03,02,13,16.60
2021,07,03,02,14,16.60
2021,07,03,02,15,16.60
2021,07,03,02,16,16.60
2021,07,03,02,17,16.60
2021,07,03,02,18,16.60
2021,07,03,02,19,16.60
2021,07,03,02,20,16.60
2021,07,03,02,21,16.60
2021,07,03,02,22,16.60
2021,07,03,02,23,16.50
2021,07,03,02,24,16.50
2021,07,03,02,25,16.50
2021,07,03,02,26,16.50
2021,07,03,02,27,16.40
2021,07,03,02,28,16.40
2021,07,03,02,29,16.40
2021,07,03,02,30,16.40
2021,07,03,02,31,16.30
2021,07,03,02,32,16.30
2021,07,03,02,33,16.30
2021,07,03,02,34,16.30
2021,07,03,02,35,16.30
2021,07,03,02,36,16.20
2021,07,03,02,37,16.20
2021,07,03,02,38,16.20
2021,07,03,02,39,16.20
2021,07,03,02,40,16.20
2021,07,03,02,41,16.10
2021,07,03,02,42,16.10
2021,07,03,02,43,16.10
2021,07,03,02,44,16.10
2021,07,03,02,45,16.10
2021,07,03,02,46,16.10
2021,07,03,02,47,16.00
2021,07,03,02,48,16.00
2021,07,03,02,49,16.00
2021,07,03,02,50,16.00
2021,07,03,02,51,15.90
2021,07,03,02,52,15.90
2021,07,03,02,53,15.90
2021,07,03,02,54,15.90
2021,07,03,02,55,15.90
2021,07,03,02,56,15.90
2021,07,03,02,57,15.80
2021,07,03,02,58,15.80
2021,07,03,02,59,15.80
2021,07,03,03,00,15.80
2021,07,03,03,01,15.80
2021,07,03,03,02,15.80
2021,07,03,03,03,15.80
2021,07,03,03,04,15.80
2021,07,03,03,05,15.80
2021,07,03,03,06,15.80
2021,07,03,03,07,15.70
2021,07,03,03,08,15.70
2021,07,03,03,09,15.70
2021,07,03,03,10,15.70
2021,07,03,03,11,15.70
2021,07,03,03,12,15.70
2021,07,03,03,13,15.70
2021,07,03,03,14,15.70
2021,07,03,03,15,15.70
2021,07,03,03,16,15.70
2021,07,03,03,17,15.70
2021,07,03,03,18,15.70
2021,07,03,03,19,15.70
2021,07,03,03,20,15.70
2021,07,03,03,21,15.70
2021,07,03,03,22,15.70
2021,07,03,03,23,15.70
2021,07,03,03,24,15.70
2021,07,03,03,25,15.70
2021,07,03,03,26,15.70
2021,07,03,03,27,15.70
2021,07,03,03,28,15.70
2021,07,03,03,29,15.70
2021,07,03,03,30,15.70
2021,07,03,03,31,15.60
2021,07,03,03,32,15.60
2021,07,03,03,33,15.60
2021,07,03,03,34,15.60
2021,07,03,03,35,15.60
2021,07,03,03,36,15.60
2021,07,03,03,37,15.60
2021,07,03,03,38,15.60
2021,07,03,03,39,15.60
2021,07,03,03,40,15.60
2021,07,03,03,41,15.60
2021,07,03,03,42,15.60
2021,07,03,03,43,15.50
2021,07,03,03,44,15.50
2021,07,03,03,45,15.60
2021,07,03,03,46,15.50
2021,07,03,03,47,15.50
2021,07,03,03,48,15.60
2021,07,03,03,49,15.60
2021,07,03,03,50,15.60
2021,07,03,03,51,15.60
2021,07,03,03,52,15.50
2021,07,03,03,53,15.60
2021,07,03,03,54,15.60
2021,07,03,03,55,15.50
2021,07,03,03,56,15.50
2021,07,03,03,57,15.50
2021,07,03,03,58,15.50
2021,07,03,03,59,15.50
2021,07,03,04,00,15.50
2021,07,03,04,01,15.50
2021,07,03,04,02,15.50
2021,07,03,04,03,15.50
2021,07,03,04,04,15.40
2021,07,03,04,05,15.40
2021,07,03,04,06,15.40
2021,07,03,04,07,15.40
2021,07,03,04,08,15.40
2021,07,03,04,09,15.40
2021,07,03,04,10,15.40
2021,07,03,04,11,15.40
2021,07,03,04,12,15.40
2021,07,03,04,13,15.40
2021,07,03,04,14,15.30
2021,07,03,04,15,15.30
2021,07,03,04,16,15.30
2021,07,03,04,17,15.30
2021,07,03,04,18,15.30
2021,07,03,04,19,15.30
2021,07,03,04,20,15.30
2021,07,03,04,21,15.30
2021,07,03,04,22,15.30
2021,07,03,04,23,15.30
2021,07,03,04,24,15.30
2021,07,03,04,25,15.20
2021,07,03,04,26,15.20
2021,07,03,04,27,15.20
2021,07,03,04,28,15.20
2021,07,03,04,29,15.20
2021,07,03,04,30,15.10
2021,07,03,04,31,15.10
2021,07,03,04,32,15.10
2021,07,03,04,33,15.10
2021,07,03,04,34,15.10
2021,07,03,04,35,15.10
2021,07,03,04,36,15.00
2021,07,03,04,37,15.00
2021,07,03,04,38,15.00
2021,07,03,04,39,15.00
2021,07,03,04,40,14.90
2021,07,03,04,41,14.90
2021,07,03,04,42,14.90
2021,07,03,04,43,14.90
2021,07,03,04,44,14.90
2021,07,03,04,45,14.90
2021,07,03,04,46,14.90
2021,07,03,04,47,14.90
2021,07,03,04,48,14.90
2021,07,03,04,49,14.90
2021,07,03,04,50,14.90
2021,07,03,04,51,14.80
2021,07,03,04,52,14.80
2021,07,03,04,53,14.80
2021,07,03,04,54,14.80
2021,07,03,04,55,14.80
2021,07,03,04,56,14.80
2021,07,03,04,57,14.80
2021,07,03,04,58,14.80
2021,07,03,04,59,14.80
2021,07,03,05,00,14.80
2021,07,03,05,01,14.80
2021,07,03,05,02,14.80
2021,07,03,05,03,14.80
2021,07,03,05,04,14.80
2021,07,03,05,05,14.80
2021,07,03,05,06,14.80
2021,07,03,05,07,14.80
2021,07,03,05,08,14.80
2021,07,03,05,09,14.80
2021,07,03,05,10,14.70
2021,07,03,05,11,14.70
2021,07,03,05,12,14.70
2021,07,03,05,13,14.70
2021,07,03,05,14,14.70
2021,07,03,05,15,14.70
2021,07,03,05,16,14.70
2021,07,03,05,17,14.70
2021,07,03,05,18,14.60
2021,07,03,05,19,14.60
2021,07,03,05,20,14.60
2021,07,03,05,21,14.60
2021,07,03,05,22,14.60
2021,07,03,05,23,14.60
2021,07,03,05,24,14.60
2021,07,03,05,25,14.60
2021,07,03,05,26,14.60
2021,07,03,05,27,14.50
2021,07,03,05,28,14.50
2021,07,03,05,29,14.50
2021,07,03,05,30,14.50
2021,07,03,05,31,14.50
2021,07,03,05,32,14.50
2021,07,03,05,33,14.50
2021,07,03,05,34,14.50
2021,07,03,05,35,14.50
2021,07,03,05,36,14.60
2021,07,03,05,37,14.50
2021,07,03,05,38,14.50
2021,07,03,05,39,14.50
2021,07,03,05,40,14.50
2021,07,03,05,41,14.50
2021,07,03,05,42,14.50
2021,07,03,05,43,14.50
2021,07,03,05,44,14.50
2021,07,03,05,45,14.50
2021,07,03,05,46,14.40
2021,07,03,05,47,14.40
2021,07,03,05,48,14.40
2021,07,03,05,49,14.40
2021,07,03,05,50,14.40
2021,07,03,05,51,14.40
2021,07,03,05,52,14.40
2021,07,03,05,53,14.40
2021,07,03,05,54,14.40
2021,07,03,05,55,14.40
2021,07,03,05,56,14.50
2021,07,03,05,57,14.50
2021,07,03,05,58,14.50
2021,07,03,05,59,14.50
2021,07,03,06,00,14.50
2021,07,03,06,01,14.60
2021,07,03,06,02,14.60
2021,07,03,06,03,14.60
2021,07,03,06,04,14.60
2021,07,03,06,05,14.60
2021,07,03,06,06,14.60
2021,07,03,06,07,14.60
2021,07,03,06,08,14.60
2021,07,03,06,09,14.60
2021,07,03,06,10,14.60
2021,07,03,06,11,14.60
2021,07,03,06,12,14.50
2021,07,03,06,13,14.50
2021,07,03,06,14,14.50
2021,07,03,06,15,14.50
2021,07,03,06,16,14.50
2021,07,03,06,17,14.50
2021,07,03,06,18,14.50
2021,07,03,06,19,14.50
2021,07,03,06,20,14.50
2021,07,03,06,21,14.50
2021,07,03,06,22,14.50
2021,07,03,06,23,14.60
2021,07,03,06,24,14.60
2021,07,03,06,25,14.60
2021,07,03,06,26,14.60
2021,07,03,06,27,14.60
2021,07,03,06,28,14.50
2021,07,03,06,29,14.50
2021,07,03,06,30,14.50
2021,07,03,06,31,14.50
2021,07,03,06,32,14.50
2021,07,03,06,33,14.50
2021,07,03,06,34,14.60
2021,07,03,06,35,14.60
2021,07,03,06,36,14.60
2021,07,03,06,37,14.60
2021,07,03,06,38,14.60
2021,07,03,06,39,14.60
2021,07,03,06,40,14.70
2021,07,03,06,41,14.70
2021,07,03,06,42,14.70
2021,07,03,06,43,14.70
2021,07,03,06,44,14.80
2021,07,03,06,45,14.80
2021,07,03,06,46,14.90
2021,07,03,06,47,14.90
2021,07,03,06,48,14.90
2021,07,03,06,49,15.00
2021,07,03,06,50,15.00
2021,07,03,06,51,15.10
2021,07,03,06,52,15.10
2021,07,03,06,53,15.20
2021,07,03,06,54,15.20
2021,07,03,06,55,15.20
2021,07,03,06,56,15.30
2021,07,03,06,57,15.30
2021,07,03,06,58,15.30
2021,07,03,06,59,15.40
2021,07,03,07,00,15.40
2021,07,03,07,01,15.40
2021,07,03,07,02,15.50
2021,07,03,07,03,15.50
2021,07,03,07,04,15.60
2021,07,03,07,05,15.60
2021,07,03,07,06,15.70
2021,07,03,07,07,15.70
2021,07,03,07,08,15.80
2021,07,03,07,09,15.80
2021,07,03,07,10,15.90
2021,07,03,07,11,15.90
2021,07,03,07,12,16.00
2021,07,03,07,13,16.00
2021,07,03,07,14,16.10
2021,07,03,07,15,16.10
2021,07,03,07,16,16.20
2021,07,03,07,17,16.30
2021,07,03,07,18,16.30
2021,07,03,07,19,16.40
2021,07,03,07,20,16.40
2021,07,03,07,21,16.50
2021,07,03,07,22,16.60
2021,07,03,07,23,16.60
2021,07,03,07,24,16.70
2021,07,03,07,25,16.70
2021,07,03,07,26,16.70
2021,07,03,07,27,16.70
2021,07,03,07,28,16.70
2021,07,03,07,29,16.80
2021,07,03,07,30,16.80
2021,07,03,07,31,16.80
2021,07,03,07,32,16.90
2021,07,03,07,33,16.90
2021,07,03,07,34,17.00
2021,07,03,07,35,17.10
2021,07,03,07,36,17.10
2021,07,03,07,37,17.20
2021,07,03,07,38,17.20
2021,07,03,07,39,17.30
2021,07,03,07,40,17.30
2021,07,03,07,41,17.40
2021,07,03,07,42,17.40
2021,07,03,07,43,17.40
2021,07,03,07,44,17.50
2021,07,03,07,45,17.60
2021,07,03,07,46,17.60
2021,07,03,07,47,17.60
2021,07,03,07,48,17.60
2021,07,03,07,49,17.60
2021,07,03,07,50,17.60
2021,07,03,07,51,17.70
2021,07,03,07,52,17.70
2021,07,03,07,53,17.70
2021,07,03,07,54,17.80
2021,07,03,07,55,17.80
2021,07,03,07,56,17.80
2021,07,03,07,57,17.80
2021,07,03,07,58,17.80
2021,07,03,07,59,17.90
2021,07,03,08,00,17.90
2021,07,03,08,01,17.90
2021,07,03,08,02,18.00
2021,07,03,08,03,18.00
2021,07,03,08,04,18.10
2021,07,03,08,05,18.10
2021,07,03,08,06,18.20
2021,07,03,08,07,18.20
2021,07,03,08,08,18.30
2021,07,03,08,09,18.30
2021,07,03,08,10,18.30
2021,07,03,08,11,18.40
2021,07,03,08,12,18.40
2021,07,03,08,13,18.40
2021,07,03,08,14,18.40
2021,07,03,08,15,18.40
2021,07,03,08,16,18.40
2021,07,03,08,17,18.30
2021,07,03,08,18,18.30
2021,07,03,08,19,18.30
2021,07,03,08,20,18.20
2021,07,03,08,21,18.20
2021,07,03,08,22,18.20
2021,07,03,08,23,18.20
2021,07,03,08,24,18.20
2021,07,03,08,25,18.20
2021,07,03,08,26,18.20
2021,07,03,08,27,18.20
2021,07,03,08,28,18.20
2021,07,03,08,29,18.20
2021,07,03,08,30,18.20
2021,07,03,08,31,18.20
2021,07,03,08,32,18.20
2021,07,03,08,33,18.30
2021,07,03,08,34,18.30
2021,07,03,08,35,18.40
2021,07,03,08,36,18.50
2021,07,03,08,37,18.60
2021,07,03,08,38,18.70
2021,07,03,08,39,18.80
2021,07,03,08,40,18.80
2021,07,03,08,41,18.90
2021,07,03,08,42,18.90
2021,07,03,08,43,19.00
2021,07,03,08,44,19.10
2021,07,03,08,45,19.20
2021,07,03,08,46,19.20
2021,07,03,08,47,19.30
2021,07,03,08,48,19.40
2021,07,03,08,49,19.50
2021,07,03,08,50,19.50
2021,07,03,08,51,19.60
2021,07,03,08,52,19.60
2021,07,03,08,53,19.60
2021,07,03,08,54,19.60
2021,07,03,08,55,19.60
2021,07,03,08,56,19.60
2021,07,03,08,57,19.60
2021,07,03,08,58,19.50
2021,07,03,08,59,19.50
2021,07,03,09,00,19.50
2021,07,03,09,01,19.50
2021,07,03,09,02,19.60
2021,07,03,09,03,19.70
2021,07,03,09,04,19.70
2021,07,03,09,05,19.80
2021,07,03,09,06,19.90
2021,07,03,09,07,19.90
2021,07,03,09,08,20.00
2021,07,03,09,09,20.00
2021,07,03,09,10,20.00
2021,07,03,09,11,20.00
2021,07,03,09,12,20.10
2021,07,03,09,13,20.20
2021,07,03,09,14,20.30
2021,07,03,09,15,20.30
2021,07,03,09,16,20.40
2021,07,03,09,17,20.50
2021,07,03,09,18,20.60
2021,07,03,09,19,20.60
2021,07,03,09,20,20.60
2021,07,03,09,21,20.50
2021,07,03,09,22,20.40
2021,07,03,09,23,20.40
2021,07,03,09,24,20.40
2021,07,03,09,25,20.40
2021,07,03,09,26,20.40
2021,07,03,09,27,20.40
2021,07,03,09,28,20.40
2021,07,03,09,29,20.40
2021,07,03,09,30,20.40
2021,07,03,09,31,20.40
2021,07,03,09,32,20.40
2021,07,03,09,33,20.50
2021,07,03,09,34,20.50
2021,07,03,09,35,20.60
2021,07,03,09,36,20.60
2021,07,03,09,37,20.70
2021,07,03,09,38,20.70
2021,07,03,09,39,20.70
2021,07,03,09,40,20.80
2021,07,03,09,41,20.80
2021,07,03,09,42,20.80
2021,07,03,09,43,20.80
2021,07,03,09,44,20.70
2021,07,03,09,45,20.70
2021,07,03,09,46,20.70
2021,07,03,09,47,20.70
2021,07,03,09,48,20.70
2021,07,03,09,49,20.70
2021,07,03,09,50,20.70
2021,07,03,09,51,20.80
2021,07,03,09,52,20.90
2021,07,03,09,53,20.90
2021,07,03,09,54,21.00
2021,07,03,09,55,21.00
2021,07,03,09,56,21.10
2021,07,03,09,57,21.20
2021,07,03,09,58,21.30
2021,07,03,09,59,21.40
2021,07,03,10,00,21.60
2021,07,03,10,01,21.70
2021,07,03,10,02,21.80
2021,07,03,10,03,21.80
2021,07,03,10,04,21.90
2021,07,03,10,05,21.90
2021,07,03,10,06,21.80
2021,07,03,10,07,21.80
2021,07,03,10,08,21.80
2021,07,03,10,09,21.80
2021,07,03,10,10,21.80
2021,07,03,10,11,21.70
2021,07,03,10,12,21.70
2021,07,03,10,13,21.70
2021,07,03,10,14,21.70
2021,07,03,10,15,21.70
2021,07,03,10,16,21.80
2021,07,03,10,17,21.80
2021,07,03,10,18,21.90
2021,07,03,10,19,21.90
2021,07,03,10,20,22.00
2021,07,03,10,21,22.10
2021,07,03,10,22,22.20
2021,07,03,10,23,22.30
2021,07,03,10,24,22.30
2021,07,03,10,25,22.30
2021,07,03,10,26,22.30
2021,07,03,10,27,22.30
2021,07,03,10,28,22.20
2021,07,03,10,29,22.20
2021,07,03,10,30,22.10
2021,07,03,10,31,22.00
2021,07,03,10,32,21.90
2021,07,03,10,33,22.00
2021,07,03,10,34,22.10
2021,07,03,10,35,22.10
2021,07,03,10,36,22.20
2021,07,03,10,37,22.20
2021,07,03,10,38,22.20
2021,07,03,10,39,22.20
2021,07,03,10,40,22.30
2021,07,03,10,41,22.30
2021,07,03,10,42,22.40
2021,07,03,10,43,22.40
2021,07,03,10,44,22.40
2021,07,03,10,45,22.50
2021,07,03,10,46,22.50
2021,07,03,10,47,22.60
2021,07,03,10,48,22.60
2021,07,03,10,49,22.60
2021,07,03,10,50,22.60
2021,07,03,10,51,22.70
2021,07,03,10,52,22.70
2021,07,03,10,53,22.70
2021,07,03,10,54,22.80
2021,07,03,10,55,22.90
2021,07,03,10,56,22.90
2021,07,03,10,57,22.90
2021,07,03,10,58,22.90
2021,07,03,10,59,22.90
2021,07,03,11,00,22.90
2021,07,03,11,01,22.90
2021,07,03,11,02,22.90
2021,07,03,11,03,22.90
2021,07,03,11,04,22.90
2021,07,03,11,05,22.90
2021,07,03,11,06,23.00
2021,07,03,11,07,23.10
2021,07,03,11,08,23.10
2021,07,03,11,09,23.20
2021,07,03,11,10,23.20
2021,07,03,11,11,23.30
2021,07,03,11,12,23.30
2021,07,03,11,13,23.30
2021,07,03,11,14,23.30
2021,07,03,11,15,23.40
2021,07,03,11,16,23.40
2021,07,03,11,17,23.50
2021,07,03,11,18,23.50
2021,07,03,11,19,23.50
2021,07,03,11,20,23.50
2021,07,03,11,21,23.50
2021,07,03,11,22,23.50
2021,07,03,11,23,23.50
2021,07,03,11,24,23.50
2021,07,03,11,25,23.50
2021,07,03,11,26,23.60
2021,07,03,11,27,23.60
2021,07,03,11,28,23.60
2021,07,03,11,29,23.70
2021,07,03,11,30,23.80
2021,07,03,11,31,23.90
2021,07,03,11,32,23.90
2021,07,03,11,33,24.00
2021,07,03,11,34,24.00
2021,07,03,11,35,24.00
2021,07,03,11,36,24.00
2021,07,03,11,37,24.00
2021,07,03,11,38,24.10
2021,07,03,11,39,24.10
2021,07,03,11,40,24.10
2021,07,03,11,41,24.10
2021,07,03,11,42,24.10
2021,07,03,11,43,24.20
2021,07,03,11,44,24.20
2021,07,03,11,45,24.30
2021,07,03,11,46,24.30
2021,07,03,11,47,24.30
2021,07,03,11,48,24.30
2021,07,03,11,49,24.30
2021,07,03,11,50,24.40
2021,07,03,11,51,24.50
2021,07,03,11,52,24.50
2021,07,03,11,53,24.60
2021,07,03,11,54,24.60
2021,07,03,11,55,24.70
2021,07,03,11,56,24.70
2021,07,03,11,57,24.70
2021,07,03,11,58,24.80
2021,07,03,11,59,24.80
2021,07,03,12,00,24.90
2021,07,03,12,01,25.00
2021,07,03,12,02,25.10
2021,07,03,12,03,25.10
2021,07,03,12,04,25.20
2021,07,03,12,05,25.20
2021,07,03,12,06,25.20
2021,07,03,12,07,25.20
2021,07,03,12,08,25.30
2021,07,03,12,09,25.40
2021,07,03,12,10,25.40
2021,07,03,12,11,25.40
2021,07,03,12,12,25.40
2021,07,03,12,13,25.50
2021,07,03,12,14,25.50
2021,07,03,12,15,25.60
2021,07,03,12,16,25.50
2021,07,03,12,17,25.50
2021,07,03,12,18,25.50
2021,07,03,12,19,25.60
2021,07,03,12,20,25.70
2021,07,03,12,21,25.70
2021,07,03,12,22,25.60
2021,07,03,12,23,25.60
2021,07,03,12,24,25.60
2021,07,03,12,25,25.60
2021,07,03,12,26,25.60
2021,07,03,12,27,25.60
2021,07,03,12,28,25.70
2021,07,03,12,29,25.80
2021,07,03,12,30,25.90
2021,07,03,12,31,25.90
2021,07,03,12,32,25.90
2021,07,03,12,33,26.00
2021,07,03,12,34,26.00
2021,07,03,12,35,26.00
2021,07,03,12,36,25.90
2021,07,03,12,37,25.80
2021,07,03,12,38,25.80
2021,07,03,12,39,25.80
2021,07,03,12,40,25.80
2021,07,03,12,41,25.80
2021,07,03,12,42,25.90
2021,07,03,12,43,25.90
2021,07,03,12,44,25.90
2021,07,03,12,45,26.00
2021,07,03,12,46,26.10
2021,07,03,12,47,26.10
2021,07,03,12,48,26.10
2021,07,03,12,49,26.00
2021,07,03,12,50,26.10
2021,07,03,12,51,26.00
2021,07,03,12,52,26.00
2021,07,03,12,53,26.10
2021,07,03,12,54,26.10
2021,07,03,12,55,26.10
2021,07,03,12,56,26.10
2021,07,03,12,57,26.00
2021,07,03,12,58,25.90
2021,07,03,12,59,25.90
2021,07,03,13,00,25.90
2021,07,03,13,01,25.90
2021,07,03,13,02,26.00
2021,07,03,13,03,26.00
2021,07,03,13,04,26.10
2021,07,03,13,05,26.10
2021,07,03,13,06,26.20
2021,07,03,13,07,26.20
2021,07,03,13,08,26.30
2021,07,03,13,09,26.30
2021,07,03,13,10,26.40
2021,07,03,13,11,26.50
2021,07,03,13,12,26.50
2021,07,03,13,13,26.60
2021,07,03,13,14,26.60
2021,07,03,13,15,26.70
2021,07,03,13,16,26.80
2021,07,03,13,17,26.90
2021,07,03,13,18,27.00
2021,07,03,13,19,27.00
2021,07,03,13,20,26.90
2021,07,03,13,21,26.90
2021,07,03,13,22,26.90
2021,07,03,13,23,26.80
2021,07,03,13,24,26.80
2021,07,03,13,25,26.80
2021,07,03,13,26,26.80
2021,07,03,13,27,26.80
2021,07,03,13,28,26.80
2021,07,03,13,29,26.80
2021,07,03,13,30,26.70
2021,07,03,13,31,26.60
2021,07,03,13,32,26.60
2021,07,03,13,33,26.70
2021,07,03,13,34,26.70
2021,07,03,13,35,26.80
2021,07,03,13,36,26.80
2021,07,03,13,37,26.90
2021,07,03,13,38,26.90
2021,07,03,13,39,26.80
2021,07,03,13,40,26.80
2021,07,03,13,41,26.90
2021,07,03,13,42,26.90
2021,07,03,13,43,26.80
2021,07,03,13,44,26.80
2021,07,03,13,45,26.80
2021,07,03,13,46,26.80
2021,07,03,13,47,26.90
2021,07,03,13,48,26.90
2021,07,03,13,49,26.90
2021,07,03,13,50,26.90
2021,07,03,13,51,26.90
2021,07,03,13,52,27.00
2021,07,03,13,53,27.10
2021,07,03,13,54,27.20
2021,07,03,13,55,27.40
2021,07,03,13,56,27.60
2021,07,03,13,57,27.70
2021,07,03,13,58,27.70
2021,07,03,13,59,27.60
2021,07,03,14,00,27.50
2021,07,03,14,01,27.50
2021,07,03,14,02,27.40
2021,07,03,14,03,27.50
2021,07,03,14,04,27.50
2021,07,03,14,05,27.60
2021,07,03,14,06,27.60
2021,07,03,14,07,27.70
2021,07,03,14,08,27.70
2021,07,03,14,09,27.70
2021,07,03,14,10,27.80
2021,07,03,14,11,27.80
2021,07,03,14,12,27.90
2021,07,03,14,13,27.90
2021,07,03,14,14,27.90
2021,07,03,14,15,28.00
2021,07,03,14,16,28.00
2021,07,03,14,17,28.10
2021,07,03,14,18,28.20
2021,07,03,14,19,28.20
2021,07,03,14,20,28.20
2021,07,03,14,21,28.10
2021,07,03,14,22,28.10
2021,07,03,14,23,28.10
2021,07,03,14,24,28.20
2021,07,03,14,25,28.30
2021,07,03,14,26,28.30
2021,07,03,14,27,28.30
2021,07,03,14,28,28.40
2021,07,03,14,29,28.40
2021,07,03,14,30,28.40
2021,07,03,14,31,28.40
2021,07,03,14,32,28.40
2021,07,03,14,33,28.30
2021,07,03,14,34,28.30
2021,07,03,14,35,28.30
2021,07,03,14,36,28.40
2021,07,03,14,37,28.40
2021,07,03,14,38,28.50
2021,07,03,14,39,28.60
2021,07,03,14,40,28.60
2021,07,03,14,41,28.60
2021,07,03,14,42,28.60
2021,07,03,14,43,28.60
2021,07,03,14,44,28.50
2021,07,03,14,45,28.40
2021,07,03,14,46,28.30
2021,07,03,14,47,28.20
2021,07,03,14,48,28.20
2021,07,03,14,49,28.20
2021,07,03,14,50,28.20
2021,07,03,14,51,28.20
2021,07,03,14,52,28.20
2021,07,03,14,53,28.10
2021,07,03,14,54,28.10
2021,07,03,14,55,28.10
2021,07,03,14,56,28.20
2021,07,03,14,57,28.20
2021,07,03,14,58,28.20
2021,07,03,14,59,28.20
2021,07,03,15,00,28.30
2021,07,03,15,01,28.30
2021,07,03,15,02,28.30
2021,07,03,15,03,28.30
2021,07,03,15,04,28.40
2021,07,03,15,05,28.40
2021,07,03,15,06,28.40
2021,07,03,15,07,28.50
2021,07,03,15,08,28.60
2021,07,03,15,09,28.60
2021,07,03,15,10,28.70
2021,07,03,15,11,28.60
2021,07,03,15,12,28.60
2021,07,03,15,13,28.60
2021,07,03,15,14,28.60
2021,07,03,15,15,28.60
2021,07,03,15,16,28.40
2021,07,03,15,17,28.30
2021,07,03,15,18,28.30
2021,07,03,15,19,28.30
2021,07,03,15,20,28.30
2021,07,03,15,21,28.30
2021,07,03,15,22,28.40
2021,07,03,15,23,28.50
2021,07,03,15,24,28.50
2021,07,03,15,25,28.60
2021,07,03,15,26,28.60
2021,07,03,15,27,28.60
2021,07,03,15,28,28.50
2021,07,03,15,29,28.40
2021,07,03,15,30,28.40
2021,07,03,15,31,28.50
2021,07,03,15,32,28.50
2021,07,03,15,33,28.60
2021,07,03,15,34,28.70
2021,07,03,15,35,28.70
2021,07,03,15,36,28.70
2021,07,03,15,37,28.70
2021,07,03,15,38,28.70
2021,07,03,15,39,28.70
2021,07,03,15,40,28.70
2021,07,03,15,41,28.60
2021,07,03,15,42,28.60
2021,07,03,15,43,28.70
2021,07,03,15,44,28.70
2021,07,03,15,45,28.80
2021,07,03,15,46,28.80
2021,07,03,15,47,28.80
2021,07,03,15,48,28.80
2021,07,03,15,49,28.80
2021,07,03,15,50,28.90
2021,07,03,15,51,29.00
2021,07,03,15,52,29.10
2021,07,03,15,53,29.00
2021,07,03,15,54,28.90
2021,07,03,15,55,28.90
2021,07,03,15,56,28.80
2021,07,03,15,57,28.90
2021,07,03,15,58,28.90
2021,07,03,15,59,28.90
2021,07,03,16,00,29.00
2021,07,03,16,01,29.00
2021,07,03,16,02,29.10
2021,07,03,16,03,29.20
2021,07,03,16,04,29.30
2021,07,03,16,05,29.40
2021,07,03,16,06,29.50
2021,07,03,16,07,29.50
2021,07,03,16,08,29.40
2021,07,03,16,09,29.30
2021,07,03,16,10,29.30
2021,07,03,16,11,29.40
2021,07,03,16,12,29.50
2021,07,03,16,13,29.40
2021,07,03,16,14,29.40
2021,07,03,16,15,29.30
2021,07,03,16,16,29.30
2021,07,03,16,17,29.30
2021,07,03,16,18,29.30
2021,07,03,16,19,29.20
2021,07,03,16,20,29.20
2021,07,03,16,21,29.10
2021,07,03,16,22,29.10
2021,07,03,16,23,29.00
2021,07,03,16,24,29.10
2021,07,03,16,25,29.10
2021,07,03,16,26,29.20
2021,07,03,16,27,29.20
2021,07,03,16,28,29.30
2021,07,03,16,29,29.30
2021,07,03,16,30,29.20
2021,07,03,16,31,29.20
2021,07,03,16,32,29.20
2021,07,03,16,33,29.10
2021,07,03,16,34,29.10
2021,07,03,16,35,29.10
2021,07,03,16,36,29.10
2021,07,03,16,37,29.10
2021,07,03,16,38,29.10
2021,07,03,16,39,29.10
2021,07,03,16,40,29.10
2021,07,03,16,41,29.10
2021,07,03,16,42,29.10
2021,07,03,16,43,29.10
2021,07,03,16,44,29.10
2021,07,03,16,45,29.00
2021,07,03,16,46,29.00
2021,07,03,16,47,29.00
2021,07,03,16,48,29.00
2021,07,03,16,49,29.10
2021,07,03,16,50,29.10
2021,07,03,16,51,28.90
2021,07,03,16,52,28.80
2021,07,03,16,53,28.60
2021,07,03,16,54,28.50
2021,07,03,16,55,28.50
2021,07,03,16,56,28.50
2021,07,03,16,57,28.40
2021,07,03,16,58,28.40
2021,07,03,16,59,28.40
2021,07,03,17,00,28.50
2021,07,03,17,01,28.60
2021,07,03,17,02,28.60
2021,07,03,17,03,28.60
2021,07,03,17,04,28.70
2021,07,03,17,05,28.80
2021,07,03,17,06,28.90
2021,07,03,17,07,29.00
2021,07,03,17,08,29.10
2021,07,03,17,09,29.10
2021,07,03,17,10,29.20
2021,07,03,17,11,29.20
2021,07,03,17,12,29.20
2021,07,03,17,13,29.20
2021,07,03,17,14,29.20
2021,07,03,17,15,29.20
2021,07,03,17,16,29.20
2021,07,03,17,17,29.20
2021,07,03,17,18,29.20
2021,07,03,17,19,29.20